CDT,Max TemperatureF,Mean TemperatureF,Min TemperatureF,Max Dew PointF,MeanDew PointF,Min DewpointF,Max Humidity, Mean Humidity, Min Humidity, Max Sea Level PressureIn, Mean Sea Level PressureIn, Min Sea Level PressureIn, Max VisibilityMiles, Mean VisibilityMiles, Min VisibilityMiles, Max Wind SpeedMPH, Mean Wind SpeedMPH, Max Gust SpeedMPH,PrecipitationIn, CloudCover, Events, WindDirDegrees
2012-10-1,68,56,44,48,36,27,67,45,21,30.08,30.02,29.92,10,10,10,24,11,36,0.00,0,,351
2012-10-2,73,58,42,36,30,25,71,39,16,30.01,29.87,29.75,10,10,7,23,8,30,0.00,0,,169
2012-10-3,75,60,46,43,36,27,67,43,19,29.90,29.84,29.78,10,10,2,16,7,29,0.00,0,,74
2012-10-4,53,43,33,45,36,30,100,85,67,30.21,30.02,29.75,10,8,1,34,21,47,0.04,3,Rain-Snow,320
2012-10-5,41,34,26,34,28,25,100,79,57,30.27,30.22,30.19,10,10,5,25,17,33,0.00,6,Snow,311
2012-10-6,44,36,28,32,27,21,93,71,46,30.39,30.31,30.24,10,10,10,15,10,21,0.00,4,Snow,333
2012-10-7,57,40,24,27,22,19,86,54,23,30.23,29.99,29.81,10,10,10,21,9,28,0.00,1,,197
2012-10-8,57,46,35,45,32,21,82,62,50,29.80,29.67,29.56,10,10,7,24,9,32,0.01,6,Rain,209
2012-10-9,42,36,30,36,29,23,87,69,53,30.04,29.87,29.73,10,10,3,26,11,36,0.00,6,,303
2012-10-10,50,36,23,34,26,19,100,68,30,30.08,29.97,29.81,10,10,2,14,6,25,0.00,4,Rain,231
2012-10-11,44,37,28,36,27,19,93,69,37,30.39,30.17,29.86,10,10,10,15,9,23,0.00,1,,350
2012-10-12,53,38,23,27,19,12,93,52,19,30.40,30.20,29.84,10,10,10,28,10,32,0.00,1,,156
2012-10-13,64,53,42,39,36,16,71,52,24,29.83,29.70,29.62,10,10,10,21,11,29,0.00,2,,198
2012-10-14,55,44,33,36,32,30,87,67,41,29.92,29.86,29.79,10,10,10,18,9,24,0.00,0,,348
2012-10-15,62,46,30,37,35,30,100,62,34,29.92,29.77,29.57,10,10,7,21,8,26,0.00,2,,158
2012-10-16,71,60,50,46,44,36,82,55,38,29.56,29.43,29.27,10,10,10,12,6,,0.00,2,Rain,170
2012-10-17,59,50,42,50,45,41,100,88,55,29.27,29.19,29.13,10,9,2,26,12,32,0.59,7,Rain,280
2012-10-18,48,45,42,46,43,41,100,96,93,29.48,29.26,29.13,10,5,1,34,17,47,0.39,8,Rain,328
2012-10-19,42,40,39,41,40,37,100,95,87,29.74,29.66,29.49,10,7,2,28,18,34,0.12,8,Rain,342
2012-10-20,51,45,39,43,41,37,100,90,71,29.74,29.70,29.65,10,8,0,17,6,24,0.00,6,Fog,170
2012-10-21,55,50,44,48,44,41,93,81,67,29.97,29.80,29.69,10,10,10,16,9,21,0.00,2,,33
2012-10-22,57,50,42,45,43,39,100,76,59,30.02,29.94,29.85,10,10,7,14,9,18,0.00,2,Rain,72
2012-10-23,57,52,48,55,51,45,100,93,76,29.84,29.71,29.63,10,4,0,13,8,18,0.01,8,Fog-Rain-Thunderstorm,135
2012-10-24,53,44,35,52,39,34,100,88,76,29.96,29.89,29.76,10,10,5,20,12,28,0.08,5,Rain,338
2012-10-25,37,34,32,34,28,25,100,76,60,30.14,29.98,29.90,10,10,5,23,18,33,0.01,5,Rain-Snow,322
2012-10-26,39,34,30,25,21,16,75,60,39,30.31,30.26,30.15,10,10,10,22,15,28,0.00,8,,291
2012-10-27,39,31,23,28,22,16,93,67,42,30.32,30.27,30.23,10,10,7,12,3,,0.00,4,,183
2012-10-28,39,36,33,36,33,27,100,85,70,30.26,30.22,30.17,10,8,1,15,7,18,0.00,6,Rain-Snow,152
2012-10-29,48,44,39,30,28,27,70,58,43,30.18,30.15,30.12,10,10,10,21,14,26,0.00,3,,145
2012-10-30,44,40,37,30,26,21,70,55,39,30.18,30.13,30.06,10,10,10,16,11,21,0.00,5,,130
2012-10-31,53,43,33,37,32,28,87,66,41,30.07,29.99,29.91,10,10,5,18,6,29,0.00,4,,154